AirNav   Air Wisconsin pilot careers
 
 298 users online  

ND33 Dawson Mediport Heliport
Dawson, North Dakota, USA


FAA INFORMATION EFFECTIVE 01 FEBRUARY 2018

Location

FAA Identifier: ND33
Lat/Long: 46-52-36.0000N / 099-45-08.4000W
46-52.600000N / 099-45.140000W
46.8766667 / -99.7523333
(estimated)
Elevation: 1750 ft. / 533 m (estimated)
Variation: 08E (2000)
Time zone: UTC -6 (UTC -5 during Daylight Saving Time)
Zip code: 58428

Heliport Operations

Heliport use: Private use. Permission required prior to landing
Activation date: 11/2002
Control tower: no
ARTCC: MINNEAPOLIS CENTER
FSS: GRAND FORKS FLIGHT SERVICE STATION
Attendance: UNATNDD
Segmented circle: no

Nearby radio navigation aids

VOR radial/distance  VOR name  Freq  Var
BISr068/38.1BISMARCK VOR/DME116.5012E

Heliport Services

Runway Information

Helipad H1

Dimensions: 30 x 30 ft. / 9 x 9 m
Surface: asphalt
Traffic pattern: leftleft

Heliport Ownership and Management from official FAA records

Ownership: Privately-owned
Owner: DAWSON FIRST RESPONDER TEM
P.O. BOX 214
DAWSON, ND 58428
Phone 701-327-4434
Manager: MISTY ISZLER
PO BOX 201, P.O. BOX 214
DAWSON, ND 58428
Phone (701) 214-9109

Instrument Procedures

There are no published instrument procedures at ND33.

Some nearby airports with instrument procedures:

KBIS - Bismarck Municipal Airport (41 nm W)
46D - Carrington Municipal Airport (42 nm NE)
KJMS - Jamestown Regional Airport (44 nm E)
7L2 - Linton Municipal Airport (44 nm SW)
Y19 - Mandan Municipal Airport (47 nm W)
 
Loc | Ops | Rwys | IFR | FBO | Links
Com | Nav | Svcs | Stats | Notes

Mandan Aero Center
 
Area around ND33 (Dawson Mediport Heliport)
 
Road maps at: MapQuest Bing Google
 
Aerial photo
No photo
 
Sectional chart

 
Airport distance calculator
Flying to Dawson Mediport Heliport? Find the distance to fly.

From to ND33

Sunrise and sunset
Times for 20-Feb-2018
 Local
(UTC-6)
 Zulu
(UTC)
Morning civil twilight07:0513:05
Sunrise07:3613:36
Sunset18:1000:10
Evening civil twilight18:4100:41

Current date and time
Zulu (UTC)  20-Feb-2018 09:45:27
Local (UTC-6)  20-Feb-2018 03:45:27
 
METAR
KBIS 
41nm W 
200852Z 33006KT 7SM -SN BKN055 OVC110 M16/M18 A3014 RMK AO2 SLP250 P0000 60000 T11561183 53005
K46D 
42nm NE 
200935Z AUTO 33009KT 10SM SCT020 BKN036 OVC110 M16/M18 A3013 RMK AO2
K7L2 
44nm SW 
200935Z AUTO 34011KT 6SM -SN M16/M20 A3008 RMK AO2
KJMS 
45nm E 
200856Z AUTO 36012KT 10SM BKN075 OVC085 M16/M18 A3005 RMK AO2 SNE15 SLP213 P0000 60000 T11611183 56023
KY19 
47nm W 
200935Z AUTO 33009KT 6SM -SN FEW006 SCT015 BKN047 M16/M18 A3008 RMK AO2
TAF
KBIS 
41nm W 
200520Z 2006/2106 36005KT 4SM -SN OVC035 FM201200 33007KT P6SM OVC025 FM201900 29009KT P6SM BKN050 FM210200 26006KT P6SM SCT250
KJMS 
45nm E 
200520Z 2006/2106 01014KT 1 1/2SM -SN OVC020 FM201000 36010KT 2SM -SN OVC015 FM201800 32011KT P6SM BKN025 FM210000 29009KT P6SM BKN060 FM210500 25008KT P6SM FEW250
NOTAMs
Click for the latest NOTAMs
NOTAMs are issued by the DoD/FAA and will open in a separate window not controlled by AirNav.

 

 
 

Would you like to see your business listed on this page?

 If your business provides an interesting product or service to pilots, flight crews, aircraft, or users of the Dawson Mediport Heliport, you should consider listing it here.  To start the listing process, click on the button below
 
Add a business
 

Other Pages about Dawson Mediport Heliport

Update a link
 
Copyright © AirNav, LLC. All rights reserved. Privacy Policy  Contact